Location: Moscow
(30.9132°N, 94.8252°W)
Time: 11:29:40
(UTC+00:00)

Iridium 4 Rocket - Pass Details

Date: 15 November 2025
Orbit: 579 x 888 km, 86.9° (Epoch: 11 December)

Event Time Altitude Azimuth Distance (km) Brightness Sun altitude
Exits shadow 10:47:28 61° 53° (NE) 661 3.3 -25.5°
Maximum altitude 10:47:52 66° 88° (E) 638 3.2 -25.4°
Drops below altitude 10° 10:52:01 10° 171° (S) 1,922 5.8 -24.5°
Sets 10:54:15 0° 174° (S) 2,848 6.6 -24.0°
